Location: Stanford
(52.2833°N, 2.4333°W)
Time: 19:14:33
(UTC+00:00)

CZ-4 R/B - Pass Details

Date: 22 January 2021
Orbit: 530 x 599 km, 97.7° (Epoch: 27 February)

Event Time Altitude Azimuth Distance (km) Brightness Sun altitude
Rises 19:28:25 0° 195° (SSW) 2,790 5.1 -25.5°
Reaches altitude 10° 19:30:52 10° 208° (SSW) 1,884 4.3 -25.8°
Maximum altitude 19:34:18 26° 266° (W) 1,142 3.6 -26.4°
Drops below altitude 10° 19:37:43 10° 324° (NW) 1,863 4.5 -26.9°
Sets 19:40:08 0° 337° (NNW) 2,751 5.2 -27.3°
